M I D A S
Marine Information and Data Acquisition System
Tripno 1412 of the Zeeleeuw from 2007-11-12 09:07:35 to 2007-11-13 15:51:56
Back to CruiseResearch ActivitiesStationsMapUnderway DataData graphs

EquipmentUnitsComment
TimeDGPSUTC
LatitudeDGPSDM.mWGS84
LongitudeDGPSDM.mWGS84
TemperatureSBE03/SBE38deg celciusITS90
ConductivitySBE21S/mITS90
SalinitySBE21 Practical Salinity Units
ChlorophylAChelsea fluorimeterg/lCalibrated in Aceton
Missing or incorrect values are displayed as -999
Sea surface data collected by the RV Zeeleeuw from 2007-11-12 09:06:30 to 2007-11-13 16:02:17
                                                                                    Next 1000 lines
Time Latitude Longitude Temperature Conductivity Salinity ChlorophylA
2007-11-12 09:06:40 51°14.6 2°53.547 -999 -999 -999 -999
2007-11-12 09:06:45 51°14.603 2°53.536 -999 -999 -999 -999
2007-11-12 09:06:49 51°14.605 2°53.527 -999 -999 -999 -999
2007-11-12 09:06:55 51°14.609 2°53.514 -999 -999 -999 -999
2007-11-12 09:07:00 51°14.612 2°53.503 -999 -999 -999 -999
2007-11-12 09:07:05 51°14.616 2°53.493 -999 -999 -999 -999
2007-11-12 09:07:09 51°14.618 2°53.485 -999 -999 -999 -999
2007-11-12 09:07:15 51°14.622 2°53.473 -999 -999 -999 -999
2007-11-12 09:07:20 51°14.626 2°53.463 -999 -999 -999 -999
2007-11-12 09:07:25 51°14.63 2°53.453 -999 -999 -999 -999
2007-11-12 09:07:29 51°14.632 2°53.445 -999 -999 -999 -999
2007-11-12 09:07:35 51°14.637 2°53.433 -999 -999 -999 -999
2007-11-12 09:07:40 51°14.641 2°53.422 -999 -999 -999 -999
2007-11-12 09:07:45 51°14.644 2°53.412 -999 -999 -999 -999
2007-11-12 09:07:49 51°14.646 2°53.404 -999 -999 -999 -999
2007-11-12 09:07:54 51°14.648 2°53.394 -999 -999 -999 -999
2007-11-12 09:08:00 51°14.651 2°53.382 -999 -999 -999 -999
2007-11-12 09:08:05 51°14.654 2°53.372 -999 -999 -999 -999
2007-11-12 09:08:09 51°14.656 2°53.364 -999 -999 -999 -999
2007-11-12 09:08:15 51°14.659 2°53.351 -999 -999 -999 -999
2007-11-12 09:08:20 51°14.661 2°53.34 -999 -999 -999 -999
2007-11-12 09:08:25 51°14.663 2°53.329 -999 -999 -999 -999
2007-11-12 09:08:29 51°14.666 2°53.321 -999 -999 -999 -999
2007-11-12 09:08:35 51°14.67 2°53.308 -999 -999 -999 -999
2007-11-12 09:08:40 51°14.673 2°53.298 -999 -999 -999 -999
2007-11-12 09:08:44 51°14.676 2°53.29 -999 -999 -999 -999
2007-11-12 09:08:50 51°14.681 2°53.277 -999 -999 -999 -999
2007-11-12 09:08:55 51°14.685 2°53.268 -999 -999 -999 -999
2007-11-12 09:09:00 51°14.689 2°53.258 -999 -999 -999 -999
2007-11-12 09:09:05 51°14.693 2°53.248 -999 -999 -999 -999
2007-11-12 09:09:09 51°14.697 2°53.24 -999 -999 -999 -999
2007-11-12 09:09:15 51°14.701 2°53.23 -999 -999 -999 -999
2007-11-12 09:09:20 51°14.706 2°53.221 -999 -999 -999 -999
2007-11-12 09:09:25 51°14.71 2°53.212 -999 -999 -999 -999
2007-11-12 09:09:29 51°14.713 2°53.205 -999 -999 -999 -999
2007-11-12 09:09:34 51°14.717 2°53.196 -999 -999 -999 -999
2007-11-12 09:09:40 51°14.723 2°53.185 -999 -999 -999 -999
2007-11-12 09:09:45 51°14.727 2°53.175 -999 -999 -999 -999
2007-11-12 09:09:49 51°14.73 2°53.168 -999 -999 -999 -999
2007-11-12 09:09:55 51°14.735 2°53.157 -999 -999 -999 -999
2007-11-12 09:10:00 51°14.739 2°53.148 -999 -999 -999 -999
2007-11-12 09:10:05 51°14.743 2°53.139 -999 -999 -999 -999
2007-11-12 09:10:09 51°14.746 2°53.132 -999 -999 -999 -999
2007-11-12 09:10:14 51°14.75 2°53.122 -999 -999 -999 -999
2007-11-12 09:10:20 51°14.754 2°53.111 -999 -999 -999 -999
2007-11-12 09:10:25 51°14.758 2°53.102 -999 -999 -999 -999
2007-11-12 09:10:29 51°14.761 2°53.094 -999 -999 -999 -999
2007-11-12 09:10:35 51°14.765 2°53.082 -999 -999 -999 -999
2007-11-12 09:10:40 51°14.769 2°53.072 -999 -999 -999 -999
2007-11-12 09:10:45 51°14.772 2°53.063 -999 -999 -999 -999
2007-11-12 09:10:49 51°14.774 2°53.055 -999 -999 -999 -999
2007-11-12 09:10:55 51°14.778 2°53.043 -999 -999 -999 -999
2007-11-12 09:11:00 51°14.781 2°53.033 -999 -999 -999 -999
2007-11-12 09:11:05 51°14.785 2°53.024 -999 -999 -999 -999
2007-11-12 09:11:09 51°14.788 2°53.016 -999 -999 -999 -999
2007-11-12 09:11:15 51°14.792 2°53.004 -999 -999 -999 -999
2007-11-12 09:11:20 51°14.795 2°52.995 -999 -999 -999 -999
2007-11-12 09:11:25 51°14.799 2°52.985 -999 -999 -999 -999
2007-11-12 09:11:30 51°14.802 2°52.976 -999 -999 -999 -999
2007-11-12 09:11:35 51°14.806 2°52.966 -999 -999 -999 -999
2007-11-12 09:11:40 51°14.81 2°52.957 -999 -999 -999 -999
2007-11-12 09:11:45 51°14.813 2°52.948 -999 -999 -999 -999
2007-11-12 09:11:49 51°14.816 2°52.94 -999 -999 -999 -999
2007-11-12 09:11:55 51°14.82 2°52.929 -999 -999 -999 -999
2007-11-12 09:12:00 51°14.824 2°52.92 -999 -999 -999 -999
2007-11-12 09:12:05 51°14.828 2°52.91 -999 -999 -999 -999
2007-11-12 09:12:09 51°14.831 2°52.902 -999 -999 -999 -999
2007-11-12 09:12:14 51°14.835 2°52.893 -999 -999 -999 -999
2007-11-12 09:12:20 51°14.839 2°52.881 -999 -999 -999 -999
2007-11-12 09:12:25 51°14.843 2°52.872 -999 -999 -999 -999
2007-11-12 09:12:29 51°14.846 2°52.864 -999 -999 -999 -999
2007-11-12 09:12:35 51°14.851 2°52.853 -999 -999 -999 -999
2007-11-12 09:12:40 51°14.855 2°52.843 -999 -999 -999 -999
2007-11-12 09:12:45 51°14.859 2°52.833 -999 -999 -999 -999
2007-11-12 09:12:49 51°14.863 2°52.825 -999 -999 -999 -999
2007-11-12 09:12:55 51°14.868 2°52.813 -999 -999 -999 -999
2007-11-12 09:13:00 51°14.872 2°52.803 -999 -999 -999 -999
2007-11-12 09:13:04 51°14.875 2°52.795 -999 -999 -999 -999
2007-11-12 09:13:09 51°14.878 2°52.786 -999 -999 -999 -999
2007-11-12 09:13:15 51°14.883 2°52.774 -999 -999 -999 -999
2007-11-12 09:13:20 51°14.886 2°52.764 -999 -999 -999 -999
2007-11-12 09:13:25 51°14.889 2°52.755 -999 -999 -999 -999
2007-11-12 09:13:30 51°14.893 2°52.746 -999 -999 -999 -999
2007-11-12 09:13:35 51°14.897 2°52.736 -999 -999 -999 -999
2007-11-12 09:13:40 51°14.901 2°52.727 -999 -999 -999 -999
2007-11-12 09:13:45 51°14.904 2°52.717 -999 -999 -999 -999
2007-11-12 09:13:49 51°14.907 2°52.71 -999 -999 -999 -999
2007-11-12 09:13:55 51°14.911 2°52.698 -999 -999 -999 -999
2007-11-12 09:14:00 51°14.914 2°52.688 -999 -999 -999 -999
2007-11-12 09:14:05 51°14.917 2°52.679 -999 -999 -999 -999
2007-11-12 09:14:09 51°14.92 2°52.672 -999 -999 -999 -999
2007-11-12 09:14:15 51°14.924 2°52.66 -999 -999 -999 -999
2007-11-12 09:14:20 51°14.927 2°52.65 -999 -999 -999 -999
2007-11-12 09:14:25 51°14.931 2°52.641 -999 -999 -999 -999
2007-11-12 09:14:29 51°14.933 2°52.633 -999 -999 -999 -999
2007-11-12 09:14:34 51°14.937 2°52.624 -999 -999 -999 -999
2007-11-12 09:14:40 51°14.941 2°52.613 -999 -999 -999 -999
2007-11-12 09:14:45 51°14.945 2°52.604 -999 -999 -999 -999
2007-11-12 09:14:49 51°14.948 2°52.597 -999 -999 -999 -999
2007-11-12 09:14:54 51°14.951 2°52.588 -999 -999 -999 -999
2007-11-12 09:15:00 51°14.956 2°52.577 -999 -999 -999 -999
2007-11-12 09:15:05 51°14.96 2°52.568 -999 -999 -999 -999
2007-11-12 09:15:09 51°14.963 2°52.561 -999 -999 -999 -999
2007-11-12 09:15:15 51°14.967 2°52.549 -999 -999 -999 -999
2007-11-12 09:15:20 51°14.97 2°52.539 -999 -999 -999 -999
2007-11-12 09:15:25 51°14.974 2°52.529 -999 -999 -999 -999
2007-11-12 09:15:29 51°14.976 2°52.521 -999 -999 -999 -999
2007-11-12 09:15:35 51°14.981 2°52.509 -999 -999 -999 -999
2007-11-12 09:15:40 51°14.984 2°52.499 -999 -999 -999 -999
2007-11-12 09:15:45 51°14.987 2°52.489 -999 -999 -999 -999
2007-11-12 09:15:49 51°14.989 2°52.481 -999 -999 -999 -999
2007-11-12 09:15:55 51°14.993 2°52.47 -999 -999 -999 -999
2007-11-12 09:16:00 51°14.995 2°52.46 -999 -999 -999 -999
2007-11-12 09:16:05 51°14.998 2°52.45 -999 -999 -999 -999
2007-11-12 09:16:09 51°15 2°52.443 -999 -999 -999 -999
2007-11-12 09:16:15 51°15.004 2°52.431 -999 -999 -999 -999
2007-11-12 09:16:20 51°15.007 2°52.421 -999 -999 -999 -999
2007-11-12 09:16:25 51°15.01 2°52.411 -999 -999 -999 -999
2007-11-12 09:16:29 51°15.012 2°52.403 -999 -999 -999 -999
2007-11-12 09:16:35 51°15.016 2°52.39 -999 -999 -999 -999
2007-11-12 09:16:40 51°15.019 2°52.38 -999 -999 -999 -999
2007-11-12 09:16:45 51°15.021 2°52.37 -999 -999 -999 -999
2007-11-12 09:16:49 51°15.023 2°52.362 -999 -999 -999 -999
2007-11-12 09:16:55 51°15.027 2°52.35 -999 -999 -999 -999
2007-11-12 09:17:00 51°15.029 2°52.34 -999 -999 -999 -999
2007-11-12 09:17:04 51°15.031 2°52.332 -999 -999 -999 -999
2007-11-12 09:17:09 51°15.034 2°52.322 -999 -999 -999 -999
2007-11-12 09:17:15 51°15.037 2°52.309 -999 -999 -999 -999
2007-11-12 09:17:20 51°15.04 2°52.298 -999 -999 -999 -999
2007-11-12 09:17:25 51°15.043 2°52.288 -999 -999 -999 -999
2007-11-12 09:17:29 51°15.045 2°52.279 -999 -999 -999 -999
2007-11-12 09:17:35 51°15.048 2°52.266 -999 -999 -999 -999
2007-11-12 09:17:40 51°15.051 2°52.255 -999 -999 -999 -999
2007-11-12 09:17:45 51°15.054 2°52.244 -999 -999 -999 -999
2007-11-12 09:17:50 51°15.057 2°52.233 -999 -999 -999 -999
2007-11-12 09:17:55 51°15.06 2°52.222 -999 -999 -999 -999
2007-11-12 09:18:00 51°15.063 2°52.212 -999 -999 -999 -999
2007-11-12 09:18:05 51°15.065 2°52.201 -999 -999 -999 -999
2007-11-12 09:18:10 51°15.068 2°52.19 -999 -999 -999 -999
2007-11-12 09:18:15 51°15.07 2°52.178 -999 -999 -999 -999
2007-11-12 09:18:20 51°15.073 2°52.168 -999 -999 -999 -999
2007-11-12 09:18:25 51°15.076 2°52.157 -999 -999 -999 -999
2007-11-12 09:18:30 51°15.078 2°52.146 -999 -999 -999 -999
2007-11-12 09:18:35 51°15.081 2°52.136 -999 -999 -999 -999
2007-11-12 09:18:40 51°15.084 2°52.125 -999 -999 -999 -999
2007-11-12 09:18:45 51°15.087 2°52.114 -999 -999 -999 -999
2007-11-12 09:18:49 51°15.089 2°52.106 -999 -999 -999 -999
2007-11-12 09:18:55 51°15.093 2°52.093 -999 -999 -999 -999
2007-11-12 09:19:00 51°15.096 2°52.083 -999 -999 -999 -999
2007-11-12 09:19:05 51°15.1 2°52.073 -999 -999 -999 -999
2007-11-12 09:19:09 51°15.102 2°52.064 -999 -999 -999 -999
2007-11-12 09:19:14 51°15.105 2°52.055 -999 -999 -999 -999
2007-11-12 09:19:20 51°15.109 2°52.043 -999 -999 -999 -999
2007-11-12 09:19:25 51°15.112 2°52.033 -999 -999 -999 -999
2007-11-12 09:19:29 51°15.114 2°52.026 -999 -999 -999 -999
2007-11-12 09:19:35 51°15.118 2°52.013 -999 -999 -999 -999
2007-11-12 09:19:40 51°15.122 2°52.003 -999 -999 -999 -999
2007-11-12 09:19:45 51°15.125 2°51.994 -999 -999 -999 -999
2007-11-12 09:19:49 51°15.128 2°51.985 -999 -999 -999 -999
2007-11-12 09:19:55 51°15.132 2°51.973 -999 -999 -999 -999
2007-11-12 09:20:00 51°15.136 2°51.963 -999 -999 -999 -999
2007-11-12 09:20:05 51°15.139 2°51.953 -999 -999 -999 -999
2007-11-12 09:20:09 51°15.143 2°51.945 -999 -999 -999 -999
2007-11-12 09:20:15 51°15.147 2°51.932 -999 -999 -999 -999
2007-11-12 09:20:20 51°15.15 2°51.922 -999 -999 -999 -999
2007-11-12 09:20:25 51°15.154 2°51.912 -999 -999 -999 -999
2007-11-12 09:20:30 51°15.158 2°51.901 -999 -999 -999 -999
2007-11-12 09:20:35 51°15.162 2°51.89 -999 -999 -999 -999
2007-11-12 09:20:40 51°15.166 2°51.88 -999 -999 -999 -999
2007-11-12 09:20:45 51°15.17 2°51.87 -999 -999 -999 -999
2007-11-12 09:20:49 51°15.173 2°51.862 -999 -999 -999 -999
2007-11-12 09:20:55 51°15.177 2°51.849 -999 -999 -999 -999
2007-11-12 09:21:00 51°15.181 2°51.839 -999 -999 -999 -999
2007-11-12 09:21:05 51°15.185 2°51.828 -999 -999 -999 -999
2007-11-12 09:21:09 51°15.188 2°51.82 -999 -999 -999 -999
2007-11-12 09:21:15 51°15.192 2°51.808 -999 -999 -999 -999
2007-11-12 09:21:20 51°15.196 2°51.797 -999 -999 -999 -999
2007-11-12 09:21:25 51°15.199 2°51.786 -999 -999 -999 -999
2007-11-12 09:21:29 51°15.202 2°51.779 -999 -999 -999 -999
2007-11-12 09:21:35 51°15.206 2°51.766 -999 -999 -999 -999
2007-11-12 09:21:40 51°15.21 2°51.756 -999 -999 -999 -999
2007-11-12 09:21:45 51°15.213 2°51.744 -999 -999 -999 -999
2007-11-12 09:21:49 51°15.216 2°51.736 -999 -999 -999 -999
2007-11-12 09:21:55 51°15.219 2°51.724 -999 -999 -999 -999
2007-11-12 09:22:00 51°15.223 2°51.714 -999 -999 -999 -999
2007-11-12 09:22:05 51°15.226 2°51.703 -999 -999 -999 -999
2007-11-12 09:22:10 51°15.229 2°51.693 -999 -999 -999 -999
2007-11-12 09:22:15 51°15.233 2°51.682 -999 -999 -999 -999
2007-11-12 09:22:20 51°15.236 2°51.672 -999 -999 -999 -999
2007-11-12 09:22:25 51°15.24 2°51.661 -999 -999 -999 -999
2007-11-12 09:22:30 51°15.243 2°51.651 -999 -999 -999 -999
2007-11-12 09:22:35 51°15.247 2°51.641 -999 -999 -999 -999
2007-11-12 09:22:40 51°15.25 2°51.631 -999 -999 -999 -999
2007-11-12 09:22:45 51°15.253 2°51.621 -999 -999 -999 -999
2007-11-12 09:22:49 51°15.256 2°51.613 -999 -999 -999 -999
2007-11-12 09:22:55 51°15.259 2°51.601 -999 -999 -999 -999
2007-11-12 09:23:00 51°15.262 2°51.591 -999 -999 -999 -999
2007-11-12 09:23:05 51°15.265 2°51.581 -999 -999 -999 -999
2007-11-12 09:23:09 51°15.268 2°51.573 -999 -999 -999 -999
2007-11-12 09:23:15 51°15.272 2°51.561 -999 -999 -999 -999
2007-11-12 09:23:20 51°15.275 2°51.551 -999 -999 -999 -999
2007-11-12 09:23:25 51°15.278 2°51.541 -999 -999 -999 -999
2007-11-12 09:23:29 51°15.281 2°51.532 -999 -999 -999 -999
2007-11-12 09:23:34 51°15.285 2°51.522 -999 -999 -999 -999
2007-11-12 09:23:40 51°15.289 2°51.509 -999 -999 -999 -999
2007-11-12 09:23:45 51°15.292 2°51.498 -999 -999 -999 -999
2007-11-12 09:23:49 51°15.295 2°51.49 -999 -999 -999 -999
2007-11-12 09:23:55 51°15.298 2°51.477 -999 -999 -999 -999
2007-11-12 09:24:00 51°15.302 2°51.466 -999 -999 -999 -999
2007-11-12 09:24:05 51°15.304 2°51.454 -999 -999 -999 -999
2007-11-12 09:24:09 51°15.306 2°51.444 -999 -999 -999 -999
2007-11-12 09:24:15 51°15.308 2°51.43 -999 -999 -999 -999
2007-11-12 09:24:20 51°15.31 2°51.418 -999 -999 -999 -999
2007-11-12 09:24:25 51°15.312 2°51.406 -999 -999 -999 -999
2007-11-12 09:24:29 51°15.314 2°51.397 -999 -999 -999 -999
2007-11-12 09:24:35 51°15.317 2°51.383 -999 -999 -999 -999
2007-11-12 09:24:40 51°15.32 2°51.371 -999 -999 -999 -999
2007-11-12 09:24:45 51°15.322 2°51.359 -999 -999 -999 -999
2007-11-12 09:24:50 51°15.324 2°51.347 -999 -999 -999 -999
2007-11-12 09:24:55 51°15.326 2°51.335 -999 -999 -999 -999
2007-11-12 09:25:00 51°15.327 2°51.323 -999 -999 -999 -999
2007-11-12 09:25:05 51°15.329 2°51.31 -999 -999 -999 -999
2007-11-12 09:25:10 51°15.331 2°51.298 -999 -999 -999 -999
2007-11-12 09:25:15 51°15.332 2°51.285 -999 -999 -999 -999
2007-11-12 09:25:20 51°15.333 2°51.272 -999 -999 -999 -999
2007-11-12 09:25:25 51°15.335 2°51.26 -999 -999 -999 -999
2007-11-12 09:25:29 51°15.335 2°51.249 -999 -999 -999 -999
2007-11-12 09:25:35 51°15.335 2°51.233 -999 -999 -999 -999
2007-11-12 09:25:40 51°15.336 2°51.22 -999 -999 -999 -999
2007-11-12 09:25:45 51°15.335 2°51.207 -999 -999 -999 -999
2007-11-12 09:25:49 51°15.336 2°51.196 -999 -999 -999 -999
2007-11-12 09:25:55 51°15.336 2°51.18 -999 -999 -999 -999
2007-11-12 09:26:00 51°15.337 2°51.167 -999 -999 -999 -999
2007-11-12 09:26:05 51°15.337 2°51.153 -999 -999 -999 -999
2007-11-12 09:26:09 51°15.337 2°51.141 -999 -999 -999 -999
2007-11-12 09:26:15 51°15.337 2°51.125 -999 -999 -999 -999
2007-11-12 09:26:20 51°15.337 2°51.111 -999 -999 -999 -999
2007-11-12 09:26:25 51°15.337 2°51.098 -999 -999 -999 -999
2007-11-12 09:26:29 51°15.336 2°51.087 -999 -999 -999 -999
2007-11-12 09:26:35 51°15.336 2°51.071 -999 -999 -999 -999
2007-11-12 09:26:40 51°15.336 2°51.057 -999 -999 -999 -999
2007-11-12 09:26:45 51°15.337 2°51.045 -999 -999 -999 -999
2007-11-12 09:26:50 51°15.337 2°51.032 -999 -999 -999 -999
2007-11-12 09:26:55 51°15.336 2°51.02 -999 -999 -999 -999
2007-11-12 09:27:00 51°15.336 2°51.01 -999 -999 -999 -999
2007-11-12 09:27:05 51°15.335 2°51 -999 -999 -999 -999
2007-11-12 09:27:10 51°15.335 2°50.991 -999 -999 -999 -999
2007-11-12 09:27:15 51°15.334 2°50.982 -999 -999 -999 -999
2007-11-12 09:27:20 51°15.334 2°50.973 -999 -999 -999 -999
2007-11-12 09:27:25 51°15.333 2°50.965 -999 -999 -999 -999
2007-11-12 09:27:30 51°15.332 2°50.957 -999 -999 -999 -999
2007-11-12 09:27:35 51°15.33 2°50.95 -999 -999 -999 -999
2007-11-12 09:27:40 51°15.329 2°50.943 -999 -999 -999 -999
2007-11-12 09:27:45 51°15.327 2°50.936 -999 -999 -999 -999
2007-11-12 09:27:49 51°15.327 2°50.931 -999 -999 -999 -999
2007-11-12 09:27:55 51°15.324 2°50.923 -999 -999 -999 -999
2007-11-12 09:28:00 51°15.323 2°50.916 -999 -999 -999 -999
2007-11-12 09:28:05 51°15.321 2°50.911 -999 -999 -999 -999
2007-11-12 09:28:09 51°15.32 2°50.906 -999 -999 -999 -999
2007-11-12 09:28:15 51°15.317 2°50.899 -999 -999 -999 -999
2007-11-12 09:28:20 51°15.315 2°50.894 -999 -999 -999 -999
2007-11-12 09:28:25 51°15.314 2°50.889 -999 -999 -999 -999
2007-11-12 09:28:29 51°15.312 2°50.884 -999 -999 -999 -999
2007-11-12 09:28:35 51°15.31 2°50.879 -999 -999 -999 -999
2007-11-12 09:28:40 51°15.307 2°50.874 -999 -999 -999 -999
2007-11-12 09:28:45 51°15.306 2°50.87 -999 -999 -999 -999
2007-11-12 09:28:49 51°15.303 2°50.866 -999 -999 -999 -999
2007-11-12 09:28:55 51°15.301 2°50.861 -999 -999 -999 -999
2007-11-12 09:29:00 51°15.299 2°50.857 -999 -999 -999 -999
2007-11-12 09:29:05 51°15.296 2°50.853 -999 -999 -999 -999
2007-11-12 09:29:10 51°15.294 2°50.849 -999 -999 -999 -999
2007-11-12 09:29:15 51°15.292 2°50.845 -999 -999 -999 -999
2007-11-12 09:29:20 51°15.289 2°50.841 -999 -999 -999 -999
2007-11-12 09:29:25 51°15.286 2°50.837 -999 -999 -999 -999
2007-11-12 09:29:30 51°15.286 2°50.833 -999 -999 -999 -999
2007-11-12 09:29:35 51°15.28 2°50.83 -999 -999 -999 -999
2007-11-12 09:29:40 51°15.281 2°50.826 -999 -999 -999 -999
2007-11-12 09:29:45 51°15.277 2°50.823 -999 -999 -999 -999
2007-11-12 09:29:50 51°15.275 2°50.82 -999 -999 -999 -999
2007-11-12 09:29:55 51°15.272 2°50.817 -999 -999 -999 -999
2007-11-12 09:30:00 51°15.27 2°50.814 -999 -999 -999 -999
2007-11-12 09:30:05 51°15.268 2°50.811 -999 -999 -999 -999
2007-11-12 09:30:09 51°15.266 2°50.808 -999 -999 -999 -999
2007-11-12 09:30:15 51°15.262 2°50.805 -999 -999 -999 -999
2007-11-12 09:30:20 51°15.26 2°50.802 -999 -999 -999 -999
2007-11-12 09:30:25 51°15.257 2°50.799 -999 -999 -999 -999
2007-11-12 09:30:29 51°15.255 2°50.797 -999 -999 -999 -999
2007-11-12 09:30:35 51°15.252 2°50.794 -999 -999 -999 -999
2007-11-12 09:30:40 51°15.25 2°50.791 -999 -999 -999 -999
2007-11-12 09:30:45 51°15.246 2°50.789 -999 -999 -999 -999
2007-11-12 09:30:49 51°15.246 2°50.787 -999 -999 -999 -999
2007-11-12 09:30:55 51°15.242 2°50.784 -999 -999 -999 -999
2007-11-12 09:31:00 51°15.238 2°50.782 -999 -999 -999 -999
2007-11-12 09:31:05 51°15.237 2°50.777 -999 -999 -999 -999
2007-11-12 09:31:09 51°15.234 2°50.774 -999 -999 -999 -999
2007-11-12 09:31:15 51°15.231 2°50.768 -999 -999 -999 -999
2007-11-12 09:31:20 51°15.228 2°50.761 -999 -999 -999 -999
2007-11-12 09:31:25 51°15.225 2°50.753 -999 -999 -999 -999
2007-11-12 09:31:29 51°15.223 2°50.747 -999 -999 -999 -999
2007-11-12 09:31:35 51°15.22 2°50.736 -999 -999 -999 -999
2007-11-12 09:31:40 51°15.217 2°50.728 -999 -999 -999 -999
2007-11-12 09:31:45 51°15.216 2°50.718 -999 -999 -999 -999
2007-11-12 09:31:50 51°15.213 2°50.709 -999 -999 -999 -999
2007-11-12 09:31:55 51°15.212 2°50.699 -999 -999 -999 -999
2007-11-12 09:32:00 51°15.209 2°50.69 -999 -999 -999 -999
2007-11-12 09:32:05 51°15.209 2°50.68 -999 -999 -999 -999
2007-11-12 09:32:09 51°15.206 2°50.671 -999 -999 -999 -999
2007-11-12 09:32:15 51°15.205 2°50.659 -999 -999 -999 -999
2007-11-12 09:32:20 51°15.204 2°50.648 -999 -999 -999 -999
2007-11-12 09:32:25 51°15.203 2°50.637 -999 -999 -999 -999
2007-11-12 09:32:29 51°15.201 2°50.628 -999 -999 -999 -999
2007-11-12 09:32:35 51°15.2 2°50.613 -999 -999 -999 -999
2007-11-12 09:32:40 51°15.199 2°50.6 -999 -999 -999 -999
2007-11-12 09:32:45 51°15.198 2°50.586 -999 -999 -999 -999
2007-11-12 09:32:49 51°15.198 2°50.576 -999 -999 -999 -999
2007-11-12 09:32:55 51°15.197 2°50.559 -999 -999 -999 -999
2007-11-12 09:33:00 51°15.197 2°50.546 -999 -999 -999 -999
2007-11-12 09:33:05 51°15.196 2°50.532 -999 -999 -999 -999
2007-11-12 09:33:09 51°15.196 2°50.521 -999 -999 -999 -999
2007-11-12 09:33:15 51°15.195 2°50.505 -999 -999 -999 -999
2007-11-12 09:33:20 51°15.194 2°50.491 -999 -999 -999 -999
2007-11-12 09:33:25 51°15.194 2°50.478 -999 -999 -999 -999
2007-11-12 09:33:30 51°15.193 2°50.464 -999 -999 -999 -999
2007-11-12 09:33:35 51°15.192 2°50.45 -999 -999 -999 -999
2007-11-12 09:33:40 51°15.192 2°50.437 -999 -999 -999 -999
2007-11-12 09:33:45 51°15.191 2°50.423 -999 -999 -999 -999
2007-11-12 09:33:49 51°15.19 2°50.412 -999 -999 -999 -999
2007-11-12 09:33:55 51°15.19 2°50.396 -999 -999 -999 -999
2007-11-12 09:34:00 51°15.189 2°50.382 -999 -999 -999 -999
2007-11-12 09:34:05 51°15.189 2°50.369 -999 -999 -999 -999
2007-11-12 09:34:10 51°15.189 2°50.355 -999 -999 -999 -999
2007-11-12 09:34:15 51°15.188 2°50.342 -999 -999 -999 -999
2007-11-12 09:34:20 51°15.188 2°50.329 -999 -999 -999 -999
2007-11-12 09:34:25 51°15.186 2°50.315 -999 -999 -999 -999
2007-11-12 09:34:30 51°15.186 2°50.302 -999 -999 -999 -999
2007-11-12 09:34:35 51°15.185 2°50.288 -999 -999 -999 -999
2007-11-12 09:34:40 51°15.185 2°50.275 -999 -999 -999 -999
2007-11-12 09:34:45 51°15.184 2°50.262 -999 -999 -999 -999
2007-11-12 09:34:49 51°15.184 2°50.252 -999 -999 -999 -999
2007-11-12 09:34:54 51°15.183 2°50.24 -999 -999 -999 -999
2007-11-12 09:35:00 51°15.182 2°50.225 -999 -999 -999 -999
2007-11-12 09:35:05 51°15.182 2°50.213 -999 -999 -999 -999
2007-11-12 09:35:09 51°15.181 2°50.203 -999 -999 -999 -999
2007-11-12 09:35:15 51°15.18 2°50.189 -999 -999 -999 -999
2007-11-12 09:35:20 51°15.18 2°50.177 -999 -999 -999 -999
2007-11-12 09:35:25 51°15.18 2°50.165 -999 -999 -999 -999
2007-11-12 09:35:29 51°15.178 2°50.155 -999 -999 -999 -999
2007-11-12 09:35:35 51°15.178 2°50.141 -999 -999 -999 -999
2007-11-12 09:35:40 51°15.177 2°50.129 -999 -999 -999 -999
2007-11-12 09:35:45 51°15.177 2°50.117 -999 -999 -999 -999
2007-11-12 09:35:49 51°15.177 2°50.107 -999 -999 -999 -999
2007-11-12 09:35:55 51°15.176 2°50.092 -999 -999 -999 -999
2007-11-12 09:36:00 51°15.177 2°50.081 -999 -999 -999 -999
2007-11-12 09:36:05 51°15.176 2°50.069 -999 -999 -999 -999
2007-11-12 09:36:10 51°15.175 2°50.056 -999 -999 -999 -999
2007-11-12 09:36:15 51°15.174 2°50.044 -999 -999 -999 -999
2007-11-12 09:36:20 51°15.175 2°50.033 -999 -999 -999 -999
2007-11-12 09:36:25 51°15.173 2°50.021 -999 -999 -999 -999
2007-11-12 09:36:30 51°15.173 2°50.009 -999 -999 -999 -999
2007-11-12 09:36:35 51°15.172 2°49.998 -999 -999 -999 -999
2007-11-12 09:36:40 51°15.172 2°49.986 -999 -999 -999 -999
2007-11-12 09:36:45 51°15.171 2°49.974 -999 -999 -999 -999
2007-11-12 09:36:49 51°15.171 2°49.964 -999 -999 -999 -999
2007-11-12 09:36:55 51°15.169 2°49.95 -999 -999 -999 -999
2007-11-12 09:37:00 51°15.169 2°49.938 -999 -999 -999 -999
2007-11-12 09:37:05 51°15.168 2°49.926 -999 -999 -999 -999
2007-11-12 09:37:09 51°15.167 2°49.917 -999 -999 -999 -999
2007-11-12 09:37:15 51°15.167 2°49.903 -999 -999 -999 -999
2007-11-12 09:37:20 51°15.166 2°49.891 -999 -999 -999 -999
2007-11-12 09:37:25 51°15.166 2°49.879 -999 -999 -999 -999
2007-11-12 09:37:29 51°15.165 2°49.87 -999 -999 -999 -999
2007-11-12 09:37:35 51°15.164 2°49.855 -999 -999 -999 -999
2007-11-12 09:37:40 51°15.165 2°49.844 -999 -999 -999 -999
2007-11-12 09:37:45 51°15.164 2°49.833 -999 -999 -999 -999
2007-11-12 09:37:50 51°15.163 2°49.821 -999 -999 -999 -999
2007-11-12 09:37:55 51°15.163 2°49.81 -999 -999 -999 -999
2007-11-12 09:38:00 51°15.163 2°49.798 -999 -999 -999 -999
2007-11-12 09:38:05 51°15.162 2°49.787 -999 -999 -999 -999
2007-11-12 09:38:10 51°15.161 2°49.775 -999 -999 -999 -999
2007-11-12 09:38:15 51°15.16 2°49.763 -999 -999 -999 -999
2007-11-12 09:38:20 51°15.161 2°49.752 -999 -999 -999 -999
2007-11-12 09:38:25 51°15.159 2°49.74 -999 -999 -999 -999
2007-11-12 09:38:29 51°15.159 2°49.731 -999 -999 -999 -999
2007-11-12 09:38:35 51°15.159 2°49.717 -999 -999 -999 -999
2007-11-12 09:38:40 51°15.158 2°49.705 -999 -999 -999 -999
2007-11-12 09:38:45 51°15.158 2°49.693 -999 -999 -999 -999
2007-11-12 09:38:50 51°15.157 2°49.681 -999 -999 -999 -999
2007-11-12 09:38:55 51°15.157 2°49.67 -999 -999 -999 -999
2007-11-12 09:39:00 51°15.156 2°49.658 -999 -999 -999 -999
2007-11-12 09:39:05 51°15.155 2°49.647 -999 -999 -999 -999
2007-11-12 09:39:09 51°15.154 2°49.637 -999 -999 -999 -999
2007-11-12 09:39:15 51°15.154 2°49.623 -999 -999 -999 -999
2007-11-12 09:39:20 51°15.152 2°49.611 -999 -999 -999 -999
2007-11-12 09:39:25 51°15.151 2°49.599 -999 -999 -999 -999
2007-11-12 09:39:29 51°15.15 2°49.59 -999 -999 -999 -999
2007-11-12 09:39:35 51°15.151 2°49.576 -999 -999 -999 -999
2007-11-12 09:39:40 51°15.148 2°49.564 -999 -999 -999 -999
2007-11-12 09:39:45 51°15.149 2°49.553 -999 -999 -999 -999
2007-11-12 09:39:49 51°15.147 2°49.543 -999 -999 -999 -999
2007-11-12 09:39:55 51°15.147 2°49.53 -999 -999 -999 -999
2007-11-12 09:40:00 51°15.146 2°49.518 -999 -999 -999 -999
2007-11-12 09:40:05 51°15.146 2°49.508 -999 -999 -999 -999
2007-11-12 09:40:10 51°15.144 2°49.496 -999 -999 -999 -999
2007-11-12 09:40:15 51°15.146 2°49.485 -999 -999 -999 -999
2007-11-12 09:40:20 51°15.144 2°49.474 -999 -999 -999 -999
2007-11-12 09:40:25 51°15.144 2°49.463 -999 -999 -999 -999
2007-11-12 09:40:30 51°15.143 2°49.452 -999 -999 -999 -999
2007-11-12 09:40:35 51°15.143 2°49.442 -999 -999 -999 -999
2007-11-12 09:40:40 51°15.142 2°49.43 -999 -999 -999 -999
2007-11-12 09:40:45 51°15.141 2°49.419 -999 -999 -999 -999
2007-11-12 09:40:50 51°15.141 2°49.409 -999 -999 -999 -999
2007-11-12 09:40:55 51°15.141 2°49.398 -999 -999 -999 -999
2007-11-12 09:41:00 51°15.139 2°49.387 -999 -999 -999 -999
2007-11-12 09:41:05 51°15.138 2°49.376 -999 -999 -999 -999
2007-11-12 09:41:10 51°15.139 2°49.365 -999 -999 -999 -999
2007-11-12 09:41:15 51°15.137 2°49.354 -999 -999 -999 -999
2007-11-12 09:41:20 51°15.138 2°49.343 -999 -999 -999 -999
2007-11-12 09:41:25 51°15.137 2°49.332 -999 -999 -999 -999
2007-11-12 09:41:29 51°15.136 2°49.323 -999 -999 -999 -999
2007-11-12 09:41:35 51°15.136 2°49.31 -999 -999 -999 -999
2007-11-12 09:41:40 51°15.135 2°49.299 -999 -999 -999 -999
2007-11-12 09:41:45 51°15.135 2°49.288 -999 -999 -999 -999
2007-11-12 09:41:49 51°15.133 2°49.279 -999 -999 -999 -999
2007-11-12 09:41:55 51°15.134 2°49.266 -999 -999 -999 -999
2007-11-12 09:42:00 51°15.133 2°49.255 -999 -999 -999 -999
2007-11-12 09:42:05 51°15.133 2°49.244 -999 -999 -999 -999
2007-11-12 09:42:09 51°15.131 2°49.235 -999 -999 -999 -999
2007-11-12 09:42:15 51°15.131 2°49.221 -999 -999 -999 -999
2007-11-12 09:42:20 51°15.131 2°49.21 -999 -999 -999 -999
2007-11-12 09:42:25 51°15.129 2°49.199 -999 -999 -999 -999
2007-11-12 09:42:29 51°15.129 2°49.191 -999 -999 -999 -999
2007-11-12 09:42:35 51°15.128 2°49.177 -999 -999 -999 -999
2007-11-12 09:42:40 51°15.128 2°49.167 -999 -999 -999 -999
2007-11-12 09:42:45 51°15.127 2°49.157 -999 -999 -999 -999
2007-11-12 09:42:50 51°15.126 2°49.146 -999 -999 -999 -999
2007-11-12 09:42:55 51°15.126 2°49.136 -999 -999 -999 -999
2007-11-12 09:43:00 51°15.124 2°49.125 -999 -999 -999 -999
2007-11-12 09:43:05 51°15.124 2°49.114 -999 -999 -999 -999
2007-11-12 09:43:09 51°15.123 2°49.106 -999 -999 -999 -999
2007-11-12 09:43:15 51°15.124 2°49.094 -999 -999 -999 -999
2007-11-12 09:43:20 51°15.121 2°49.082 -999 -999 -999 -999
2007-11-12 09:43:25 51°15.123 2°49.072 -999 -999 -999 -999
2007-11-12 09:43:29 51°15.121 2°49.062 -999 -999 -999 -999
2007-11-12 09:43:35 51°15.12 2°49.05 -999 -999 -999 -999
2007-11-12 09:43:39 51°15.12 2°49.041 -999 -999 -999 -999
2007-11-12 09:43:44 51°15.119 2°49.031 -999 -999 -999 -999
2007-11-12 09:43:49 51°15.118 2°49.02 -999 -999 -999 -999
2007-11-12 09:43:54 51°15.118 2°49.009 -999 -999 -999 -999
2007-11-12 09:43:59 51°15.117 2°48.998 -999 -999 -999 -999
2007-11-12 09:44:04 51°15.117 2°48.987 -999 -999 -999 -999
2007-11-12 09:44:09 51°15.116 2°48.976 -999 -999 -999 -999
2007-11-12 09:44:14 51°15.116 2°48.966 -999 -999 -999 -999
2007-11-12 09:44:19 51°15.116 2°48.954 -999 -999 -999 -999
2007-11-12 09:44:24 51°15.114 2°48.943 -999 -999 -999 -999
2007-11-12 09:44:29 51°15.114 2°48.932 -999 -999 -999 -999
2007-11-12 09:44:33 51°15.114 2°48.923 -999 -999 -999 -999
2007-11-12 09:44:38 51°15.113 2°48.912 -999 -999 -999 -999
2007-11-12 09:44:43 51°15.113 2°48.901 -999 -999 -999 -999
2007-11-12 09:44:48 51°15.112 2°48.889 -999 -999 -999 -999
2007-11-12 09:44:53 51°15.112 2°48.878 -999 -999 -999 -999
2007-11-12 09:44:58 51°15.111 2°48.867 -999 -999 -999 -999
2007-11-12 09:45:03 51°15.111 2°48.857 -999 -999 -999 -999
2007-11-12 09:45:08 51°15.111 2°48.846 -999 -999 -999 -999
2007-11-12 09:45:13 51°15.111 2°48.835 -999 -999 -999 -999
2007-11-12 09:45:17 51°15.11 2°48.826 -999 -999 -999 -999
2007-11-12 09:45:23 51°15.109 2°48.813 -999 -999 -999 -999
2007-11-12 09:45:28 51°15.109 2°48.802 -999 -999 -999 -999
2007-11-12 09:45:33 51°15.109 2°48.791 -999 -999 -999 -999
2007-11-12 09:45:37 51°15.108 2°48.782 -999 -999 -999 -999
2007-11-12 09:45:42 51°15.109 2°48.771 -999 -999 -999 -999
2007-11-12 09:45:47 51°15.107 2°48.759 -999 -999 -999 -999
2007-11-12 09:45:52 51°15.108 2°48.749 -999 -999 -999 -999
2007-11-12 09:45:57 51°15.107 2°48.737 -999 -999 -999 -999
2007-11-12 09:46:02 51°15.106 2°48.725 -999 -999 -999 -999
2007-11-12 09:46:07 51°15.106 2°48.714 -999 -999 -999 -999
2007-11-12 09:46:12 51°15.105 2°48.704 -999 -999 -999 -999
2007-11-12 09:46:17 51°15.104 2°48.693 -999 -999 -999 -999
2007-11-12 09:46:21 51°15.103 2°48.685 -999 -999 -999 -999
2007-11-12 09:46:26 51°15.103 2°48.674 -999 -999 -999 -999
2007-11-12 09:46:31 51°15.102 2°48.663 -999 -999 -999 -999
2007-11-12 09:46:36 51°15.102 2°48.652 -999 -999 -999 -999
2007-11-12 09:46:41 51°15.102 2°48.641 -999 -999 -999 -999
2007-11-12 09:46:46 51°15.102 2°48.63 -999 -999 -999 -999
2007-11-12 09:46:51 51°15.101 2°48.62 -999 -999 -999 -999
2007-11-12 09:46:56 51°15.101 2°48.609 -999 -999 -999 -999
2007-11-12 09:47:01 51°15.101 2°48.598 -999 -999 -999 -999
2007-11-12 09:47:06 51°15.1 2°48.587 -999 -999 -999 -999
2007-11-12 09:47:11 51°15.1 2°48.576 -999 -999 -999 -999
2007-11-12 09:47:16 51°15.1 2°48.566 -999 -999 -999 -999
2007-11-12 09:47:21 51°15.098 2°48.555 -999 -999 -999 -999
2007-11-12 09:47:26 51°15.098 2°48.544 -999 -999 -999 -999
2007-11-12 09:47:31 51°15.096 2°48.534 -999 -999 -999 -999
2007-11-12 09:47:36 51°15.096 2°48.523 -999 -999 -999 -999
2007-11-12 09:47:41 51°15.095 2°48.512 -999 -999 -999 -999
2007-11-12 09:47:46 51°15.094 2°48.501 -999 -999 -999 -999
2007-11-12 09:47:51 51°15.094 2°48.491 -999 -999 -999 -999
2007-11-12 09:47:56 51°15.092 2°48.48 -999 -999 -999 -999
2007-11-12 09:48:01 51°15.091 2°48.469 -999 -999 -999 -999
2007-11-12 09:48:06 51°15.09 2°48.458 -999 -999 -999 -999
2007-11-12 09:48:11 51°15.09 2°48.449 -999 -999 -999 -999
2007-11-12 09:48:16 51°15.089 2°48.438 -999 -999 -999 -999
2007-11-12 09:48:21 51°15.089 2°48.428 -999 -999 -999 -999
2007-11-12 09:48:26 51°15.088 2°48.418 -999 -999 -999 -999
2007-11-12 09:48:31 51°15.088 2°48.407 -999 -999 -999 -999
2007-11-12 09:48:36 51°15.087 2°48.397 -999 -999 -999 -999
2007-11-12 09:48:41 51°15.087 2°48.386 -999 -999 -999 -999
2007-11-12 09:48:46 51°15.087 2°48.377 -999 -999 -999 -999
2007-11-12 09:48:51 51°15.086 2°48.366 -999 -999 -999 -999
2007-11-12 09:48:56 51°15.086 2°48.355 -999 -999 -999 -999
2007-11-12 09:49:01 51°15.086 2°48.345 -999 -999 -999 -999
2007-11-12 09:49:05 51°15.085 2°48.336 -999 -999 -999 -999
2007-11-12 09:49:11 51°15.086 2°48.324 -999 -999 -999 -999
2007-11-12 09:49:16 51°15.084 2°48.313 -999 -999 -999 -999
2007-11-12 09:49:21 51°15.085 2°48.302 -999 -999 -999 -999
2007-11-12 09:49:26 51°15.084 2°48.292 -999 -999 -999 -999
2007-11-12 09:49:31 51°15.084 2°48.281 -999 -999 -999 -999
2007-11-12 09:49:36 51°15.084 2°48.271 -999 -999 -999 -999
2007-11-12 09:49:41 51°15.084 2°48.26 -999 -999 -999 -999
2007-11-12 09:49:46 51°15.083 2°48.249 -999 -999 -999 -999
2007-11-12 09:49:51 51°15.083 2°48.239 -999 -999 -999 -999
2007-11-12 09:49:56 51°15.082 2°48.228 -999 -999 -999 -999
2007-11-12 09:50:01 51°15.082 2°48.217 -999 -999 -999 -999
2007-11-12 09:50:06 51°15.081 2°48.206 -999 -999 -999 -999
2007-11-12 09:50:11 51°15.08 2°48.196 -999 -999 -999 -999
2007-11-12 09:50:16 51°15.08 2°48.185 -999 -999 -999 -999
2007-11-12 09:50:21 51°15.076 2°48.174 -999 -999 -999 -999
2007-11-12 09:50:25 51°15.078 2°48.167 -999 -999 -999 -999
2007-11-12 09:50:31 51°15.075 2°48.154 -999 -999 -999 -999
2007-11-12 09:50:36 51°15.075 2°48.144 -999 -999 -999 -999
2007-11-12 09:50:41 51°15.073 2°48.133 -999 -999 -999 -999
2007-11-12 09:50:45 51°15.073 2°48.125 -999 -999 -999 -999
2007-11-12 09:50:51 51°15.072 2°48.113 -999 -999 -999 -999
2007-11-12 09:50:56 51°15.072 2°48.102 -999 -999 -999 -999
2007-11-12 09:51:01 51°15.07 2°48.091 -999 -999 -999 -999
2007-11-12 09:51:06 51°15.07 2°48.08 -999 -999 -999 -999
2007-11-12 09:51:11 51°15.069 2°48.069 -999 -999 -999 -999
2007-11-12 09:51:16 51°15.069 2°48.058 -999 -999 -999 -999
2007-11-12 09:51:21 51°15.069 2°48.047 -999 -999 -999 -999
2007-11-12 09:51:26 51°15.068 2°48.036 -999 -999 -999 -999
2007-11-12 09:51:31 51°15.068 2°48.024 -999 -999 -999 -999
2007-11-12 09:51:36 51°15.067 2°48.012 -999 -999 -999 -999
2007-11-12 09:51:41 51°15.066 2°48 -999 -999 -999 -999
2007-11-12 09:51:46 51°15.066 2°47.989 -999 -999 -999 -999
2007-11-12 09:51:51 51°15.065 2°47.977 -999 -999 -999 -999
2007-11-12 09:51:56 51°15.066 2°47.965 -999 -999 -999 -999
2007-11-12 09:52:01 51°15.064 2°47.953 -999 -999 -999 -999
2007-11-12 09:52:06 51°15.065 2°47.941 -999 -999 -999 -999
2007-11-12 09:52:11 51°15.064 2°47.928 -999 -999 -999 -999
2007-11-12 09:52:16 51°15.064 2°47.916 -999 -999 -999 -999
2007-11-12 09:52:21 51°15.064 2°47.904 -999 -999 -999 -999
2007-11-12 09:52:26 51°15.064 2°47.892 -999 -999 -999 -999
2007-11-12 09:52:31 51°15.063 2°47.88 -999 -999 -999 -999
2007-11-12 09:52:36 51°15.062 2°47.868 -999 -999 -999 -999
2007-11-12 09:52:41 51°15.062 2°47.856 -999 -999 -999 -999
2007-11-12 09:52:46 51°15.062 2°47.845 -999 -999 -999 -999
2007-11-12 09:52:51 51°15.061 2°47.834 -999 -999 -999 -999
2007-11-12 09:52:56 51°15.06 2°47.823 -999 -999 -999 -999
2007-11-12 09:53:01 51°15.06 2°47.811 -999 -999 -999 -999
2007-11-12 09:53:06 51°15.06 2°47.8 -999 -999 -999 -999
2007-11-12 09:53:11 51°15.06 2°47.788 -999 -999 -999 -999
2007-11-12 09:53:16 51°15.06 2°47.776 -999 -999 -999 -999
2007-11-12 09:53:21 51°15.06 2°47.764 -999 -999 -999 -999
2007-11-12 09:53:26 51°15.06 2°47.753 -999 -999 -999 -999
2007-11-12 09:53:31 51°15.06 2°47.74 -999 -999 -999 -999
2007-11-12 09:53:36 51°15.061 2°47.729 -999 -999 -999 -999
2007-11-12 09:53:41 51°15.06 2°47.716 -999 -999 -999 -999
2007-11-12 09:53:45 51°15.06 2°47.706 -999 -999 -999 -999
2007-11-12 09:53:51 51°15.06 2°47.692 -999 -999 -999 -999
2007-11-12 09:53:56 51°15.059 2°47.679 -999 -999 -999 -999
2007-11-12 09:54:01 51°15.059 2°47.666 -999 -999 -999 -999
2007-11-12 09:54:06 51°15.059 2°47.654 -999 -999 -999 -999
2007-11-12 09:54:11 51°15.059 2°47.641 -999 -999 -999 -999
2007-11-12 09:54:16 51°15.059 2°47.629 -999 -999 -999 -999
2007-11-12 09:54:21 51°15.058 2°47.616 -999 -999 -999 -999
2007-11-12 09:54:26 51°15.058 2°47.603 -999 -999 -999 -999
2007-11-12 09:54:31 51°15.058 2°47.591 -999 -999 -999 -999
2007-11-12 09:54:36 51°15.058 2°47.579 -999 -999 -999 -999
2007-11-12 09:54:41 51°15.058 2°47.566 -999 -999 -999 -999
2007-11-12 09:54:46 51°15.057 2°47.554 -999 -999 -999 -999
2007-11-12 09:54:51 51°15.057 2°47.542 -999 -999 -999 -999
2007-11-12 09:54:56 51°15.057 2°47.53 -999 -999 -999 -999
2007-11-12 09:55:01 51°15.056 2°47.519 -999 -999 -999 -999
2007-11-12 09:55:06 51°15.056 2°47.507 -999 -999 -999 -999
2007-11-12 09:55:11 51°15.056 2°47.495 -999 -999 -999 -999
2007-11-12 09:55:16 51°15.056 2°47.482 -999 -999 -999 -999
2007-11-12 09:55:21 51°15.056 2°47.47 -999 -999 -999 -999
2007-11-12 09:55:25 51°15.056 2°47.461 -999 -999 -999 -999
2007-11-12 09:55:31 51°15.056 2°47.446 -999 -999 -999 -999
2007-11-12 09:55:36 51°15.056 2°47.434 -999 -999 -999 -999
2007-11-12 09:55:41 51°15.055 2°47.422 -999 -999 -999 -999
2007-11-12 09:55:45 51°15.055 2°47.412 -999 -999 -999 -999
2007-11-12 09:55:51 51°15.054 2°47.398 -999 -999 -999 -999
2007-11-12 09:55:56 51°15.054 2°47.386 -999 -999 -999 -999
2007-11-12 09:56:01 51°15.053 2°47.374 -999 -999 -999 -999
2007-11-12 09:56:06 51°15.053 2°47.362 -999 -999 -999 -999
2007-11-12 09:56:11 51°15.053 2°47.35 -999 -999 -999 -999
2007-11-12 09:56:16 51°15.052 2°47.338 -999 -999 -999 -999
2007-11-12 09:56:21 51°15.052 2°47.326 -999 -999 -999 -999
2007-11-12 09:56:26 51°15.052 2°47.314 -999 -999 -999 -999
2007-11-12 09:56:31 51°15.051 2°47.302 -999 -999 -999 -999
2007-11-12 09:56:36 51°15.051 2°47.29 -999 -999 -999 -999
2007-11-12 09:56:41 51°15.051 2°47.278 -999 -999 -999 -999
2007-11-12 09:56:46 51°15.051 2°47.267 -999 -999 -999 -999
2007-11-12 09:56:51 51°15.052 2°47.255 -999 -999 -999 -999
2007-11-12 09:56:56 51°15.051 2°47.242 -999 -999 -999 -999
2007-11-12 09:57:01 51°15.052 2°47.23 -999 -999 -999 -999
2007-11-12 09:57:06 51°15.051 2°47.218 -999 -999 -999 -999
2007-11-12 09:57:11 51°15.052 2°47.206 -999 -999 -999 -999
2007-11-12 09:57:16 51°15.049 2°47.194 -999 -999 -999 -999
2007-11-12 09:57:21 51°15.052 2°47.184 -999 -999 -999 -999
2007-11-12 09:57:26 51°15.05 2°47.173 -999 -999 -999 -999
2007-11-12 09:57:32 51°15.05 2°47.16 -999 -999 -999 -999
2007-11-12 09:57:36 51°15.048 2°47.15 -999 -999 -999 -999
2007-11-12 09:57:41 51°15.05 2°47.139 -999 -999 -999 -999
2007-11-12 09:57:46 51°15.048 2°47.128 -999 -999 -999 -999
2007-11-12 09:57:51 51°15.047 2°47.117 -999 -999 -999 -999
2007-11-12 09:57:56 51°15.048 2°47.106 -999 -999 -999 -999
2007-11-12 09:58:01 51°15.048 2°47.094 -999 -999 -999 -999
2007-11-12 09:58:06 51°15.048 2°47.083 -999 -999 -999 -999
2007-11-12 09:58:11 51°15.048 2°47.072 -999 -999 -999 -999
2007-11-12 09:58:16 51°15.047 2°47.06 -999 -999 -999 -999
2007-11-12 09:58:21 51°15.047 2°47.048 -999 -999 -999 -999
2007-11-12 09:58:26 51°15.046 2°47.036 -999 -999 -999 -999
2007-11-12 09:58:31 51°15.046 2°47.024 -999 -999 -999 -999
2007-11-12 09:58:36 51°15.048 2°47.013 -999 -999 -999 -999
2007-11-12 09:58:41 51°15.047 2°47.001 -999 -999 -999 -999
2007-11-12 09:58:46 51°15.048 2°46.989 -999 -999 -999 -999
2007-11-12 09:58:51 51°15.047 2°46.977 -999 -999 -999 -999
2007-11-12 09:58:56 51°15.048 2°46.967 -999 -999 -999 -999
2007-11-12 09:59:01 51°15.047 2°46.955 -999 -999 -999 -999
2007-11-12 09:59:06 51°15.048 2°46.945 -999 -999 -999 -999
2007-11-12 09:59:11 51°15.048 2°46.934 -999 -999 -999 -999
2007-11-12 09:59:16 51°15.047 2°46.922 -999 -999 -999 -999
2007-11-12 09:59:21 51°15.047 2°46.911 -999 -999 -999 -999
2007-11-12 09:59:26 51°15.048 2°46.9 -999 -999 -999 -999
2007-11-12 09:59:31 51°15.047 2°46.889 -999 -999 -999 -999
2007-11-12 09:59:36 51°15.048 2°46.878 -999 -999 -999 -999
2007-11-12 09:59:41 51°15.046 2°46.867 -999 -999 -999 -999
2007-11-12 09:59:45 51°15.047 2°46.858 -999 -999 -999 -999
2007-11-12 09:59:51 51°15.046 2°46.845 -999 -999 -999 -999
2007-11-12 09:59:56 51°15.046 2°46.834 -999 -999 -999 -999
2007-11-12 10:00:01 51°15.046 2°46.823 -999 -999 -999 -999
2007-11-12 10:00:06 51°15.045 2°46.812 -999 -999 -999 -999
2007-11-12 10:00:11 51°15.044 2°46.802 -999 -999 -999 -999
2007-11-12 10:00:16 51°15.044 2°46.791 -999 -999 -999 -999
2007-11-12 10:00:21 51°15.043 2°46.781 -999 -999 -999 -999
2007-11-12 10:00:26 51°15.041 2°46.77 -999 -999 -999 -999
2007-11-12 10:00:31 51°15.042 2°46.76 -999 -999 -999 -999
2007-11-12 10:00:36 51°15.041 2°46.75 -999 -999 -999 -999
2007-11-12 10:00:41 51°15.041 2°46.739 -999 -999 -999 -999
2007-11-12 10:00:46 51°15.04 2°46.728 -999 -999 -999 -999
2007-11-12 10:00:51 51°15.04 2°46.718 -999 -999 -999 -999
2007-11-12 10:00:56 51°15.039 2°46.708 -999 -999 -999 -999
2007-11-12 10:01:01 51°15.039 2°46.697 -999 -999 -999 -999
2007-11-12 10:01:06 51°15.039 2°46.687 -999 -999 -999 -999
2007-11-12 10:01:11 51°15.039 2°46.677 -999 -999 -999 -999
2007-11-12 10:01:16 51°15.039 2°46.666 -999 -999 -999 -999
2007-11-12 10:01:21 51°15.039 2°46.655 -999 -999 -999 -999
2007-11-12 10:01:26 51°15.039 2°46.645 -999 -999 -999 -999
2007-11-12 10:01:31 51°15.038 2°46.634 -999 -999 -999 -999
2007-11-12 10:01:36 51°15.037 2°46.623 -999 -999 -999 -999
2007-11-12 10:01:41 51°15.038 2°46.613 -999 -999 -999 -999
2007-11-12 10:01:46 51°15.038 2°46.602 -999 -999 -999 -999
2007-11-12 10:01:51 51°15.036 2°46.591 -999 -999 -999 -999
2007-11-12 10:01:56 51°15.037 2°46.581 -999 -999 -999 -999
2007-11-12 10:02:01 51°15.036 2°46.57 -999 -999 -999 -999
2007-11-12 10:02:06 51°15.036 2°46.56 -999 -999 -999 -999
2007-11-12 10:02:11 51°15.035 2°46.549 -999 -999 -999 -999
2007-11-12 10:02:16 51°15.035 2°46.538 -999 -999 -999 -999
2007-11-12 10:02:21 51°15.035 2°46.528 -999 -999 -999 -999
2007-11-12 10:02:25 51°15.035 2°46.52 -999 -999 -999 -999
2007-11-12 10:02:31 51°15.034 2°46.507 -999 -999 -999 -999
2007-11-12 10:02:36 51°15.034 2°46.497 -999 -999 -999 -999
2007-11-12 10:02:41 51°15.032 2°46.486 -999 -999 -999 -999
2007-11-12 10:02:46 51°15.033 2°46.476 -999 -999 -999 -999
2007-11-12 10:02:51 51°15.032 2°46.465 -999 -999 -999 -999
2007-11-12 10:02:56 51°15.032 2°46.455 -999 -999 -999 -999
2007-11-12 10:03:01 51°15.032 2°46.444 -999 -999 -999 -999
2007-11-12 10:03:06 51°15.031 2°46.433 -999 -999 -999 -999
2007-11-12 10:03:11 51°15.032 2°46.422 -999 -999 -999 -999
2007-11-12 10:03:16 51°15.032 2°46.412 -999 -999 -999 -999
2007-11-12 10:03:21 51°15.031 2°46.402 -999 -999 -999 -999
2007-11-12 10:03:26 51°15.032 2°46.391 -999 -999 -999 -999
2007-11-12 10:03:31 51°15.032 2°46.38 -999 -999 -999 -999
2007-11-12 10:03:36 51°15.031 2°46.37 -999 -999 -999 -999
2007-11-12 10:03:41 51°15.031 2°46.359 -999 -999 -999 -999
2007-11-12 10:03:46 51°15.032 2°46.348 -999 -999 -999 -999
2007-11-12 10:03:51 51°15.032 2°46.338 -999 -999 -999 -999
2007-11-12 10:03:56 51°15.032 2°46.327 -999 -999 -999 -999
2007-11-12 10:04:01 51°15.033 2°46.315 -999 -999 -999 -999
2007-11-12 10:04:06 51°15.032 2°46.304 -999 -999 -999 -999
2007-11-12 10:04:11 51°15.033 2°46.294 -999 -999 -999 -999
2007-11-12 10:04:16 51°15.032 2°46.284 -999 -999 -999 -999
2007-11-12 10:04:21 51°15.032 2°46.273 -999 -999 -999 -999
2007-11-12 10:04:26 51°15.033 2°46.263 -999 -999 -999 -999
2007-11-12 10:04:31 51°15.032 2°46.251 -999 -999 -999 -999
2007-11-12 10:04:36 51°15.033 2°46.241 -999 -999 -999 -999
2007-11-12 10:04:41 51°15.032 2°46.23 -999 -999 -999 -999
2007-11-12 10:04:46 51°15.033 2°46.219 -999 -999 -999 -999
2007-11-12 10:04:51 51°15.032 2°46.208 -999 -999 -999 -999
2007-11-12 10:04:56 51°15.032 2°46.196 -999 -999 -999 -999
2007-11-12 10:05:01 51°15.032 2°46.185 -999 -999 -999 -999
2007-11-12 10:05:06 51°15.032 2°46.173 -999 -999 -999 -999
2007-11-12 10:05:11 51°15.032 2°46.162 -999 -999 -999 -999
2007-11-12 10:05:16 51°15.032 2°46.15 -999 -999 -999 -999
2007-11-12 10:05:21 51°15.033 2°46.138 -999 -999 -999 -999
2007-11-12 10:05:26 51°15.033 2°46.127 -999 -999 -999 -999
2007-11-12 10:05:31 51°15.032 2°46.115 -999 -999 -999 -999
2007-11-12 10:05:36 51°15.032 2°46.104 -999 -999 -999 -999
2007-11-12 10:05:41 51°15.033 2°46.092 -999 -999 -999 -999
2007-11-12 10:05:46 51°15.032 2°46.081 -999 -999 -999 -999
2007-11-12 10:05:51 51°15.033 2°46.07 -999 -999 -999 -999
2007-11-12 10:05:56 51°15.033 2°46.058 -999 -999 -999 -999
2007-11-12 10:06:01 51°15.033 2°46.046 -999 -999 -999 -999
2007-11-12 10:06:06 51°15.033 2°46.035 -999 -999 -999 -999
2007-11-12 10:06:11 51°15.034 2°46.023 -999 -999 -999 -999
2007-11-12 10:06:16 51°15.034 2°46.011 -999 -999 -999 -999
2007-11-12 10:06:21 51°15.035 2°45.999 -999 -999 -999 -999
2007-11-12 10:06:26 51°15.034 2°45.987 -999 -999 -999 -999
2007-11-12 10:06:31 51°15.035 2°45.974 -999 -999 -999 -999
2007-11-12 10:06:36 51°15.035 2°45.962 -999 -999 -999 -999
2007-11-12 10:06:41 51°15.035 2°45.949 -999 -999 -999 -999
2007-11-12 10:06:45 51°15.036 2°45.939 -999 -999 -999 -999
2007-11-12 10:06:51 51°15.035 2°45.924 -999 -999 -999 -999
2007-11-12 10:06:56 51°15.037 2°45.912 -999 -999 -999 -999
2007-11-12 10:07:01 51°15.036 2°45.899 -999 -999 -999 -999
2007-11-12 10:07:06 51°15.037 2°45.887 -999 -999 -999 -999
2007-11-12 10:07:11 51°15.037 2°45.874 -999 -999 -999 -999
2007-11-12 10:07:16 51°15.038 2°45.862 -999 -999 -999 -999
2007-11-12 10:07:21 51°15.037 2°45.849 -999 -999 -999 -999
2007-11-12 10:07:26 51°15.038 2°45.838 -999 -999 -999 -999
2007-11-12 10:07:31 51°15.037 2°45.825 -999 -999 -999 -999
2007-11-12 10:07:36 51°15.037 2°45.813 -999 -999 -999 -999
2007-11-12 10:07:41 51°15.037 2°45.802 -999 -999 -999 -999
2007-11-12 10:07:46 51°15.038 2°45.79 -999 -999 -999 -999
2007-11-12 10:07:51 51°15.036 2°45.778 -999 -999 -999 -999
2007-11-12 10:07:56 51°15.037 2°45.766 -999 -999 -999 -999
2007-11-12 10:08:01 51°15.037 2°45.755 -999 -999 -999 -999
2007-11-12 10:08:06 51°15.038 2°45.743 -999 -999 -999 -999
2007-11-12 10:08:11 51°15.038 2°45.732 -999 -999 -999 -999
2007-11-12 10:08:16 51°15.038 2°45.72 -999 -999 -999 -999
2007-11-12 10:08:21 51°15.039 2°45.708 -999 -999 -999 -999
2007-11-12 10:08:26 51°15.039 2°45.696 -999 -999 -999 -999
2007-11-12 10:08:31 51°15.039 2°45.684 -999 -999 -999 -999
2007-11-12 10:08:36 51°15.04 2°45.673 -999 -999 -999 -999
2007-11-12 10:08:41 51°15.04 2°45.661 -999 -999 -999 -999
2007-11-12 10:08:46 51°15.041 2°45.649 -999 -999 -999 -999
2007-11-12 10:08:51 51°15.041 2°45.637 -999 -999 -999 -999
2007-11-12 10:08:56 51°15.042 2°45.626 -999 -999 -999 -999
2007-11-12 10:09:01 51°15.041 2°45.613 -999 -999 -999 -999
2007-11-12 10:09:06 51°15.043 2°45.602 -999 -999 -999 -999
2007-11-12 10:09:11 51°15.043 2°45.589 -999 -999 -999 -999
2007-11-12 10:09:16 51°15.043 2°45.577 -999 -999 -999 -999
2007-11-12 10:09:21 51°15.044 2°45.565 -999 -999 -999 -999
2007-11-12 10:09:25 51°15.043 2°45.556 -999 -999 -999 -999
2007-11-12 10:09:31 51°15.044 2°45.543 -999 -999 -999 -999
2007-11-12 10:09:36 51°15.043 2°45.531 -999 -999 -999 -999
2007-11-12 10:09:41 51°15.043 2°45.519 -999 -999 -999 -999
2007-11-12 10:09:46 51°15.042 2°45.507 -999 -999 -999 -999
2007-11-12 10:09:51 51°15.043 2°45.496 -999 -999 -999 -999
2007-11-12 10:09:56 51°15.042 2°45.485 -999 -999 -999 -999
2007-11-12 10:10:01 51°15.043 2°45.474 -999 -999 -999 -999
2007-11-12 10:10:06 51°15.042 2°45.462 -999 -999 -999 -999
2007-11-12 10:10:11 51°15.043 2°45.451 -999 -999 -999 -999
2007-11-12 10:10:16 51°15.042 2°45.438 -999 -999 -999 -999
2007-11-12 10:10:21 51°15.043 2°45.427 -999 -999 -999 -999
2007-11-12 10:10:26 51°15.042 2°45.415 -999 -999 -999 -999
2007-11-12 10:10:31 51°15.043 2°45.404 -999 -999 -999 -999
2007-11-12 10:10:36 51°15.043 2°45.393 -999 -999 -999 -999
2007-11-12 10:10:41 51°15.042 2°45.382 -999 -999 -999 -999
2007-11-12 10:10:46 51°15.042 2°45.37 -999 -999 -999 -999
2007-11-12 10:10:51 51°15.043 2°45.359 -999 -999 -999 -999
2007-11-12 10:10:56 51°15.043 2°45.348 -999 -999 -999 -999
2007-11-12 10:11:01 51°15.043 2°45.336 -999 -999 -999 -999
2007-11-12 10:11:05 51°15.043 2°45.327 -999 -999 -999 -999
2007-11-12 10:11:11 51°15.042 2°45.314 -999 -999 -999 -999
2007-11-12 10:11:16 51°15.044 2°45.303 -999 -999 -999 -999
2007-11-12 10:11:21 51°15.042 2°45.291 -999 -999 -999 -999
2007-11-12 10:11:26 51°15.043 2°45.28 -999 -999 -999 -999
2007-11-12 10:11:31 51°15.044 2°45.269 -999 -999 -999 -999
2007-11-12 10:11:36 51°15.044 2°45.258 -999 -999 -999 -999
2007-11-12 10:11:41 51°15.044 2°45.246 -999 -999 -999 -999
2007-11-12 10:11:46 51°15.044 2°45.235 -999 -999 -999 -999
2007-11-12 10:11:51 51°15.045 2°45.224 -999 -999 -999 -999
2007-11-12 10:11:56 51°15.045 2°45.212 -999 -999 -999 -999
2007-11-12 10:12:01 51°15.046 2°45.201 -999 -999 -999 -999
2007-11-12 10:12:06 51°15.045 2°45.189 -999 -999 -999 -999
2007-11-12 10:12:11 51°15.045 2°45.178 -999 -999 -999 -999
2007-11-12 10:12:16 51°15.046 2°45.167 -999 -999 -999 -999
2007-11-12 10:12:21 51°15.046 2°45.155 -999 -999 -999 -999
2007-11-12 10:12:26 51°15.047 2°45.144 -999 -999 -999 -999
2007-11-12 10:12:31 51°15.046 2°45.132 -999 -999 -999 -999
2007-11-12 10:12:36 51°15.047 2°45.121 -999 -999 -999 -999
2007-11-12 10:12:41 51°15.047 2°45.11 -999 -999 -999 -999
2007-11-12 10:12:46 51°15.048 2°45.099 -999 -999 -999 -999
2007-11-12 10:12:51 51°15.047 2°45.086 -999 -999 -999 -999
2007-11-12 10:12:56 51°15.048 2°45.075 -999 -999 -999 -999
2007-11-12 10:13:01 51°15.049 2°45.064 -999 -999 -999 -999
2007-11-12 10:13:06 51°15.049 2°45.053 -999 -999 -999 -999
2007-11-12 10:13:11 51°15.049 2°45.041 -999 -999 -999 -999
2007-11-12 10:13:16 51°15.05 2°45.029 -999 -999 -999 -999
2007-11-12 10:13:21 51°15.049 2°45.017 -999 -999 -999 -999
2007-11-12 10:13:26 51°15.051 2°45.007 -999 -999 -999 -999
2007-11-12 10:13:31 51°15.05 2°44.995 -999 -999 -999 -999
2007-11-12 10:13:36 51°15.052 2°44.984 -999 -999 -999 -999
2007-11-12 10:13:41 51°15.052 2°44.973 -999 -999 -999 -999
2007-11-12 10:13:45 51°15.052 2°44.963 -999 -999 -999 -999
2007-11-12 10:13:51 51°15.052 2°44.95 -999 -999 -999 -999
2007-11-12 10:13:56 51°15.052 2°44.939 -999 -999 -999 -999
2007-11-12 10:14:01 51°15.053 2°44.928 -999 -999 -999 -999
2007-11-12 10:14:06 51°15.053 2°44.916 -999 -999 -999 -999
2007-11-12 10:14:11 51°15.052 2°44.904 -999 -999 -999 -999
2007-11-12 10:14:16 51°15.053 2°44.893 -999 -999 -999 -999
2007-11-12 10:14:21 51°15.053 2°44.882 -999 -999 -999 -999
2007-11-12 10:14:26 51°15.053 2°44.871 -999 -999 -999 -999
2007-11-12 10:14:31 51°15.054 2°44.859 -999 -999 -999 -999
2007-11-12 10:14:36 51°15.053 2°44.847 -999 -999 -999 -999
2007-11-12 10:14:41 51°15.054 2°44.836 -999 -999 -999 -999
2007-11-12 10:14:46 51°15.053 2°44.824 -999 -999 -999 -999
2007-11-12 10:14:51 51°15.054 2°44.813 -999 -999 -999 -999
2007-11-12 10:14:56 51°15.053 2°44.802 -999 -999 -999 -999
2007-11-12 10:15:01 51°15.054 2°44.791 -999 -999 -999 -999
2007-11-12 10:15:06 51°15.053 2°44.779 -999 -999 -999 -999
2007-11-12 10:15:11 51°15.054 2°44.769 -999 -999 -999 -999
2007-11-12 10:15:16 51°15.055 2°44.758 -999 -999 -999 -999
2007-11-12 10:15:21 51°15.055 2°44.746 -999 -999 -999 -999
2007-11-12 10:15:26 51°15.055 2°44.735 -999 -999 -999 -999
2007-11-12 10:15:31 51°15.055 2°44.723 -999 -999 -999 -999
2007-11-12 10:15:36 51°15.056 2°44.713 -999 -999 -999 -999
2007-11-12 10:15:41 51°15.054 2°44.703 -999 -999 -999 -999
2007-11-12 10:15:45 51°15.055 2°44.694 -999 -999 -999 -999
2007-11-12 10:15:51 51°15.055 2°44.682 -999 -999 -999 -999
2007-11-12 10:15:56 51°15.055 2°44.672 -999 -999 -999 -999
2007-11-12 10:16:01 51°15.055 2°44.661 -999 -999 -999 -999
2007-11-12 10:16:05 51°15.055 2°44.653 -999 -999 -999 -999
2007-11-12 10:16:11 51°15.055 2°44.64 -999 -999 -999 -999
2007-11-12 10:16:16 51°15.055 2°44.63 -999 -999 -999 -999
2007-11-12 10:16:21 51°15.056 2°44.619 -999 -999 -999 -999
2007-11-12 10:16:26 51°15.055 2°44.608 -999 -999 -999 -999
2007-11-12 10:16:31 51°15.056 2°44.597 -999 -999 -999 -999
2007-11-12 10:16:36 51°15.056 2°44.587 -999 -999 -999 -999
2007-11-12 10:16:41 51°15.056 2°44.576 -999 -999 -999 -999
2007-11-12 10:16:46 51°15.057 2°44.565 -999 -999 -999 -999
2007-11-12 10:16:51 51°15.056 2°44.554 -999 -999 -999 -999
2007-11-12 10:16:56 51°15.057 2°44.544 -999 -999 -999 -999
2007-11-12 10:17:01 51°15.056 2°44.534 -999 -999 -999 -999
2007-11-12 10:17:06 51°15.057 2°44.523 -999 -999 -999 -999
2007-11-12 10:17:11 51°15.056 2°44.512 -999 -999 -999 -999
2007-11-12 10:17:16 51°15.057 2°44.501 -999 -999 -999 -999
2007-11-12 10:17:21 51°15.057 2°44.491 -999 -999 -999 -999
2007-11-12 10:17:26 51°15.057 2°44.48 -999 -999 -999 -999
2007-11-12 10:17:31 51°15.057 2°44.468 -999 -999 -999 -999
2007-11-12 10:17:36 51°15.058 2°44.459 -999 -999 -999 -999
2007-11-12 10:17:41 51°15.057 2°44.448 -999 -999 -999 -999
2007-11-12 10:17:46 51°15.058 2°44.438 -999 -999 -999 -999
2007-11-12 10:17:51 51°15.058 2°44.428 -999 -999 -999 -999
2007-11-12 10:17:56 51°15.059 2°44.418 -999 -999 -999 -999
2007-11-12 10:18:01 51°15.058 2°44.408 -999 -999 -999 -999
2007-11-12 10:18:06 51°15.058 2°44.398 -999 -999 -999 -999
2007-11-12 10:18:11 51°15.058 2°44.388 -999 -999 -999 -999
2007-11-12 10:18:16 51°15.059 2°44.378 -999 -999 -999 -999
2007-11-12 10:18:21 51°15.059 2°44.368 -999 -999 -999 -999
2007-11-12 10:18:26 51°15.059 2°44.357 -999 -999 -999 -999
2007-11-12 10:18:31 51°15.061 2°44.347 -999 -999 -999 -999
2007-11-12 10:18:36 51°15.06 2°44.336 -999 -999 -999 -999
2007-11-12 10:18:41 51°15.061 2°44.326 -999 -999 -999 -999
2007-11-12 10:18:46 51°15.061 2°44.315 -999 -999 -999 -999
2007-11-12 10:18:51 51°15.061 2°44.305 -999 -999 -999 -999
2007-11-12 10:18:56 51°15.061 2°44.294 -999 -999 -999 -999
2007-11-12 10:19:01 51°15.061 2°44.282 -999 -999 -999 -999
2007-11-12 10:19:06 51°15.061 2°44.271 -999 -999 -999 -999
2007-11-12 10:19:11 51°15.062 2°44.26 -999 -999 -999 -999
2007-11-12 10:19:16 51°15.061 2°44.249 -999 -999 -999 -999
2007-11-12 10:19:21 51°15.06 2°44.238 -999 -999 -999 -999
2007-11-12 10:19:26 51°15.061 2°44.227 -999 -999 -999 -999
2007-11-12 10:19:31 51°15.059 2°44.216 -999 -999 -999 -999
2007-11-12 10:19:36 51°15.059 2°44.205 -999 -999 -999 -999
2007-11-12 10:19:41 51°15.057 2°44.194 -999 -999 -999 -999
2007-11-12 10:19:46 51°15.058 2°44.183 -999 -999 -999 -999
2007-11-12 10:19:51 51°15.057 2°44.171 -999 -999 -999 -999
2007-11-12 10:19:56 51°15.056 2°44.16 -999 -999 -999 -999
2007-11-12 10:20:01 51°15.055 2°44.148 -999 -999 -999 -999
2007-11-12 10:20:06 51°15.055 2°44.137 -999 -999 -999 -999
2007-11-12 10:20:11 51°15.054 2°44.126 -999 -999 -999 -999
2007-11-12 10:20:16 51°15.053 2°44.114 -999 -999 -999 -999
2007-11-12 10:20:21 51°15.052 2°44.103 -999 -999 -999 -999
2007-11-12 10:20:26 51°15.051 2°44.091 -999 -999 -999 -999
2007-11-12 10:20:31 51°15.05 2°44.08 -999 -999 -999 -999
2007-11-12 10:20:36 51°15.048 2°44.069 -999 -999 -999 -999
2007-11-12 10:20:41 51°15.048 2°44.058 -999 -999 -999 -999
2007-11-12 10:20:46 51°15.046 2°44.047 -999 -999 -999 -999
2007-11-12 10:20:51 51°15.045 2°44.036 -999 -999 -999 -999
2007-11-12 10:20:56 51°15.044 2°44.025 -999 -999 -999 -999
2007-11-12 10:21:01 51°15.043 2°44.013 -999 -999 -999 -999
2007-11-12 10:21:06 51°15.042 2°44.002 -999 -999 -999 -999
2007-11-12 10:21:11 51°15.041 2°43.99 -999 -999 -999 -999
2007-11-12 10:21:16 51°15.041 2°43.979 -999 -999 -999 -999
2007-11-12 10:21:21 51°15.038 2°43.968 -999 -999 -999 -999
2007-11-12 10:21:26 51°15.039 2°43.957 -999 -999 -999 -999
2007-11-12 10:21:31 51°15.037 2°43.946 -999 -999 -999 -999
2007-11-12 10:21:36 51°15.037 2°43.935 -999 -999 -999 -999
2007-11-12 10:21:41 51°15.035 2°43.924 -999 -999 -999 -999
2007-11-12 10:21:46 51°15.035 2°43.913 -999 -999 -999 -999
2007-11-12 10:21:51 51°15.034 2°43.901 -999 -999 -999 -999
2007-11-12 10:21:56 51°15.033 2°43.89 -999 -999 -999 -999
2007-11-12 10:22:01 51°15.032 2°43.879 -999 -999 -999 -999
2007-11-12 10:22:06 51°15.032 2°43.868 -999 -999 -999 -999
2007-11-12 10:22:11 51°15.029 2°43.857 -999 -999 -999 -999
2007-11-12 10:22:16 51°15.029 2°43.846 -999 -999 -999 -999
2007-11-12 10:22:21 51°15.026 2°43.835 -999 -999 -999 -999
2007-11-12 10:22:26 51°15.025 2°43.824 -999 -999 -999 -999
2007-11-12 10:22:31 51°15.021 2°43.814 -999 -999 -999 -999
2007-11-12 10:22:36 51°15.02 2°43.803 -999 -999 -999 -999
2007-11-12 10:22:41 51°15.017 2°43.792 -999 -999 -999 -999
2007-11-12 10:22:46 51°15.015 2°43.781 -999 -999 -999 -999
2007-11-12 10:22:51 51°15.012 2°43.771 -999 -999 -999 -999
2007-11-12 10:22:56 51°15.009 2°43.76 -999 -999 -999 -999
2007-11-12 10:23:01 51°15.007 2°43.749 -999 -999 -999 -999
2007-11-12 10:23:05 51°15.004 2°43.74 -999 -999 -999 -999
2007-11-12 10:23:11 51°15.002 2°43.726 -999 -999 -999 -999
2007-11-12 10:23:16 51°14.997 2°43.716 -999 -999 -999 -999
2007-11-12 10:23:21 51°14.995 2°43.705 -999 -999 -999 -999
2007-11-12 10:23:26 51°14.992 2°43.694 -999 -999 -999 -999
2007-11-12 10:23:31 51°14.989 2°43.683 -999 -999 -999 -999
2007-11-12 10:23:36 51°14.986 2°43.672 -999 -999 -999 -999
2007-11-12 10:23:41 51°14.983 2°43.661 -999 -999 -999 -999
2007-11-12 10:23:46 51°14.979 2°43.65 -999 -999 -999 -999
2007-11-12 10:23:51 51°14.976 2°43.638 -999 -999 -999 -999
2007-11-12 10:23:56 51°14.973 2°43.628 -999 -999 -999 -999
2007-11-12 10:24:01 51°14.97 2°43.617 -999 -999 -999 -999
2007-11-12 10:24:06 51°14.967 2°43.605 -999 -999 -999 -999
2007-11-12 10:24:11 51°14.964 2°43.595 -999 -999 -999 -999
2007-11-12 10:24:16 51°14.961 2°43.584 -999 -999 -999 -999
2007-11-12 10:24:21 51°14.958 2°43.573 -999 -999 -999 -999
2007-11-12 10:24:26 51°14.955 2°43.562 -999 -999 -999 -999
2007-11-12 10:24:31 51°14.952 2°43.551 -999 -999 -999 -999
2007-11-12 10:24:36 51°14.95 2°43.54 -999 -999 -999 -999
2007-11-12 10:24:41 51°14.947 2°43.529 -999 -999 -999 -999
2007-11-12 10:24:46 51°14.944 2°43.518 -999 -999 -999 -999
2007-11-12 10:24:51 51°14.941 2°43.508 -999 -999 -999 -999
2007-11-12 10:24:56 51°14.938 2°43.497 -999 -999 -999 -999
2007-11-12 10:25:01 51°14.935 2°43.487 -999 -999 -999 -999
2007-11-12 10:25:06 51°14.932 2°43.477 -999 -999 -999 -999
2007-11-12 10:25:11 51°14.927 2°43.467 -999 -999 -999 -999
2007-11-12 10:25:16 51°14.925 2°43.456 -999 -999 -999 -999
2007-11-12 10:25:21 51°14.92 2°43.447 -999 -999 -999 -999
2007-11-12 10:25:26 51°14.916 2°43.436 -999 -999 -999 -999
2007-11-12 10:25:31 51°14.913 2°43.426 -999 -999 -999 -999
2007-11-12 10:25:36 51°14.909 2°43.416 -999 -999 -999 -999
2007-11-12 10:25:41 51°14.905 2°43.406 -999 -999 -999 -999
2007-11-12 10:25:46 51°14.901 2°43.396 -999 -999 -999 -999
2007-11-12 10:25:51 51°14.898 2°43.385 -999 -999 -999 -999
2007-11-12 10:25:56 51°14.894 2°43.374 -999 -999 -999 -999
2007-11-12 10:26:01 51°14.89 2°43.364 -999 -999 -999 -999
2007-11-12 10:26:06 51°14.887 2°43.353 -999 -999 -999 -999
2007-11-12 10:26:11 51°14.883 2°43.343 -999 -999 -999 -999
2007-11-12 10:26:16 51°14.879 2°43.333 -999 -999 -999 -999
2007-11-12 10:26:21 51°14.876 2°43.322 -999 -999 -999 -999
2007-11-12 10:26:26 51°14.871 2°43.313 -999 -999 -999 -999
2007-11-12 10:26:31 51°14.868 2°43.302 -999 -999 -999 -999
2007-11-12 10:26:36 51°14.865 2°43.291 -999 -999 -999 -999
2007-11-12 10:26:41 51°14.86 2°43.281 -999 -999 -999 -999
2007-11-12 10:26:46 51°14.856 2°43.271 -999 -999 -999 -999
2007-11-12 10:26:51 51°14.853 2°43.26 -999 -999 -999 -999
2007-11-12 10:26:56 51°14.849 2°43.25 -999 -999 -999 -999
2007-11-12 10:27:01 51°14.846 2°43.24 -999 -999 -999 -999
2007-11-12 10:27:06 51°14.842 2°43.229 -999 -999 -999 -999
2007-11-12 10:27:11 51°14.837 2°43.219 -999 -999 -999 -999
2007-11-12 10:27:16 51°14.834 2°43.209 -999 -999 -999 -999
2007-11-12 10:27:21 51°14.831 2°43.199 -999 -999 -999 -999
2007-11-12 10:27:26 51°14.826 2°43.189 -999 -999 -999 -999
2007-11-12 10:27:31 51°14.822 2°43.179 -999 -999 -999 -999
2007-11-12 10:27:36 51°14.819 2°43.169 -999 -999 -999 -999
2007-11-12 10:27:41 51°14.815 2°43.16 -999 -999 -999 -999
2007-11-12 10:27:46 51°14.812 2°43.15 -999 -999 -999 -999
2007-11-12 10:27:51 51°14.808 2°43.14 -999 -999 -999 -999
2007-11-12 10:27:56 51°14.804 2°43.13 -999 -999 -999 -999
2007-11-12 10:28:01 51°14.801 2°43.12 -999 -999 -999 -999
2007-11-12 10:28:06 51°14.797 2°43.11 -999 -999 -999 -999
2007-11-12 10:28:11 51°14.794 2°43.099 -999 -999 -999 -999
2007-11-12 10:28:16 51°14.79 2°43.089 -999 -999 -999 -999
2007-11-12 10:28:21 51°14.787 2°43.079 -999 -999 -999 -999
2007-11-12 10:28:26 51°14.783 2°43.069 -999 -999 -999 -999
2007-11-12 10:28:31 51°14.78 2°43.058 -999 -999 -999 -999
2007-11-12 10:28:36 51°14.776 2°43.048 -999 -999 -999 -999
2007-11-12 10:28:41 51°14.772 2°43.037 -999 -999 -999 -999
2007-11-12 10:28:46 51°14.769 2°43.027 -999 -999 -999 -999
2007-11-12 10:28:51 51°14.765 2°43.016 -999 -999 -999 -999
2007-11-12 10:28:56 51°14.761 2°43.006 -999 -999 -999 -999
2007-11-12 10:29:01 51°14.758 2°42.995 -999 -999 -999 -999
2007-11-12 10:29:06 51°14.754 2°42.985 -999 -999 -999 -999
2007-11-12 10:29:11 51°14.751 2°42.974 -999 -999 -999 -999
2007-11-12 10:29:16 51°14.747 2°42.963 -999 -999 -999 -999
2007-11-12 10:29:21 51°14.743 2°42.953 -999 -999 -999 -999
2007-11-12 10:29:26 51°14.74 2°42.942 -999 -999 -999 -999
2007-11-12 10:29:31 51°14.736 2°42.931 -999 -999 -999 -999
2007-11-12 10:29:36 51°14.733 2°42.921 -999 -999 -999 -999
2007-11-12 10:29:41 51°14.729 2°42.91 -999 -999 -999 -999
2007-11-12 10:29:45 51°14.727 2°42.901 -999 -999 -999 -999